Location: Brede
(50.9167°N, 0.6000°E)
Time: 17:23:20
(UTC+00:00)

Cosmos 1937 Rocket - Pass Details

Date: 08 August 2020
Orbit: 747 x 780 km, 74.0° (Epoch: 23 September)

Event Time Altitude Azimuth Distance (km) Brightness Sun altitude
Exits shadow 03:09:38 14° 204° (SSW) 2,080 5.2 -11.7°
Maximum altitude 03:14:18 87° 291° (WNW) 788 3.5 -11.1°
Drops below altitude 10° 03:19:40 10° 24° (NNE) 2,344 7.2 -10.5°
Sets 03:22:03 0° 25° (NNE) 3,274 8.2 -10.2°
